Weather History for KSRQ - July, 2014

Change the Weather History Date:

Thursday, July 3, 2014

  Actual Average Record
Temperature  
Mean Temperature 84 °F 82 °F  
Max Temperature 91 °F 89 °F 100 °F (1998)
Min Temperature 77 °F 75 °F 65 °F (1971)
Degree Days  
Heating Degree Days 0 0  
Month to date heating degree days 0 0  
Since 1 June heating degree days 0 0  
Since 1 July heating degree days 0 0  
Cooling Degree Days 19 17  
Month to date cooling degree days 60 51  
Year to date cooling degree days 1382 1274  
Since 1 June cooling degree days 570 523  
Growing Degree Days 34 (Base 50)    
Moisture  
Dew Point 74 °F    
Average Humidity 73    
Maximum Humidity 85    
Minimum Humidity 61    
Precipitation  
Precipitation 0.05 in 0.28 in 3.02 in (1921)
Month to date precipitation 0.12 0.85  
Year to date precipitation 25.48 22.06  
Sea Level Pressure  
Sea Level Pressure 30.03 in    
Wind  
Wind Speed 9 mph (SW)    
Max Wind Speed 20 mph    
Max Gust Speed 25 mph    
Visibility 10 miles    
Events Rain , Thunderstorm    
T = Trace of Precipitation, MM = Missing Value Source: NWS Daily Summary

Daily Weather History Graph

Daily Weather History Graph

Search for Another Location

Airport or City:

Trip Planner

Search our weather history database for the weather conditions in past years. The results will help you decide how hot, cold, wet, or windy it might be!

Date:

Astronomy

Jul. 03, 2014 Rise Set
Actual Time 6:39 AM EDT 8:29 PM EDT
Civil Twilight 6:13 AM EDT 8:55 PM EDT
Nautical Twilight 5:41 AM EDT 9:27 PM EDT
Astronomical Twilight 5:07 AM EDT 10:01 PM EDT
Moon 12:05 PM EDT (7/3) No Moon Set
Length of Visible Light 14h 42m
Length of Day
13h 49m
Waxing Crescent, 33% of the Moon is Illuminated
Jul 3
Waxing Crescent
Jul 5
First Quarter
Jul 12
Full
Jul 18
Last Quarter
Jul 26
New

Hourly Weather History & Observations

Time (EDT) Temp. Heat Index Dew Point Humidity Pressure Visibility Wind Dir Wind Speed Gust Speed Precip Events Conditions
12:53 AM 84.9 °F 92.1 °F 73.9 °F 69% 29.97 in 10.0 mi West 9.2 mph - N/A   Partly Cloudy
1:36 AM 84.0 °F 91.9 °F 75.0 °F 74% 29.96 in 10.0 mi West 8.1 mph - N/A   Mostly Cloudy
1:48 AM 84.2 °F 90.9 °F 73.4 °F 70% 29.97 in 10.0 mi West 8.1 mph - N/A   Scattered Clouds
1:53 AM 84.0 °F 91.2 °F 73.9 °F 72% 29.97 in 10.0 mi West 9.2 mph - N/A   Scattered Clouds
2:53 AM 84.0 °F 91.2 °F 73.9 °F 72% 29.97 in 10.0 mi West 9.2 mph - N/A   Partly Cloudy
3:53 AM 84.0 °F 91.2 °F 73.9 °F 72% 29.96 in 10.0 mi West 8.1 mph - N/A   Clear
4:33 AM 84.0 °F 91.2 °F 73.9 °F 72% 29.97 in 10.0 mi West 9.2 mph - N/A Thunderstorm Partly Cloudy
4:53 AM 84.0 °F 91.2 °F 73.9 °F 72% 29.97 in 10.0 mi West 6.9 mph - N/A Thunderstorm Partly Cloudy
5:07 AM 84.0 °F 91.2 °F 73.9 °F 72% 29.97 in 10.0 mi West 9.2 mph - N/A   Partly Cloudy
5:53 AM 82.9 °F 90.2 °F 75.0 °F 77% 29.97 in 10.0 mi SW 6.9 mph - N/A   Clear
6:53 AM 84.0 °F 91.9 °F 75.0 °F 74% 29.99 in 10.0 mi WSW 6.9 mph - N/A   Mostly Cloudy
7:53 AM 84.9 °F 91.4 °F 73.0 °F 67% 30.01 in 10.0 mi SW 11.5 mph - N/A   Clear
8:53 AM 86.0 °F 92.2 °F 72.0 °F 63% 30.02 in 10.0 mi SW 10.4 mph - N/A   Clear
10:07 AM 87.1 °F 95.4 °F 73.9 °F 65% 30.03 in 10.0 mi SW 9.2 mph - N/A   Partly Cloudy
10:53 AM 88.0 °F 97.5 °F 75.0 °F 65% 30.04 in 10.0 mi SW 11.5 mph - N/A   Clear
11:53 AM 88.0 °F 97.5 °F 75.0 °F 65% 30.05 in 10.0 mi WSW 10.4 mph - N/A   Scattered Clouds
12:53 PM 89.1 °F 99.1 °F 75.0 °F 63% 30.04 in 10.0 mi SW 13.8 mph - N/A   Scattered Clouds
1:53 PM 90.0 °F 100.2 °F 75.0 °F 61% 30.03 in 10.0 mi SSW 15.0 mph - N/A   Clear
3:53 PM 90.0 °F 100.2 °F 75.0 °F 61% 30.01 in 10.0 mi SSW 13.8 mph 23.0 mph N/A   Partly Cloudy
4:53 PM 89.1 °F 99.1 °F 75.0 °F 63% 30.02 in 10.0 mi SSW 12.7 mph - N/A   Scattered Clouds
5:53 PM 89.1 °F 99.1 °F 75.0 °F 63% 30.01 in 10.0 mi WSW 13.8 mph - N/A   Scattered Clouds
6:53 PM 87.1 °F 95.4 °F 73.9 °F 65% 30.01 in 10.0 mi WSW 16.1 mph 20.7 mph N/A   Scattered Clouds
7:53 PM 81.0 °F 86.2 °F 73.9 °F 79% 30.03 in 10.0 mi SSW 6.9 mph - 0.01 in Rain , Thunderstorm Light Rain
8:03 PM 82.0 °F 87.9 °F 73.9 °F 76% 30.04 in 10.0 mi SSW 3.5 mph - 0.00 in   Scattered Clouds
8:24 PM 82.0 °F 87.9 °F 73.9 °F 76% 30.04 in 9.0 mi SW 18.4 mph 24.2 mph 0.00 in Thunderstorm Mostly Cloudy
8:38 PM 80.1 °F 83.8 °F 72.0 °F 76% 30.05 in 7.0 mi South 6.9 mph - 0.04 in Rain , Thunderstorm Light Thunderstorms and Rain
8:48 PM 78.8 °F - 71.6 °F 78% 30.05 in 10.0 mi SSE 5.8 mph - 0.04 in   Mostly Cloudy
8:53 PM 80.1 °F 83.8 °F 72.0 °F 76% 30.05 in 10.0 mi SSE 4.6 mph - 0.04 in   Scattered Clouds
9:05 PM 79.0 °F - 72.0 °F 79% 30.05 in 10.0 mi ESE 5.8 mph - N/A Thunderstorm Scattered Clouds
9:26 PM 81.0 °F 86.7 °F 75.0 °F 82% 30.06 in 10.0 mi North - - N/A Thunderstorm Thunderstorm
9:34 PM 82.0 °F 87.4 °F 73.0 °F 74% 30.07 in 10.0 mi WNW 12.7 mph - N/A Thunderstorm Thunderstorm
9:53 PM 79.0 °F - 73.0 °F 82% 30.07 in 10.0 mi NNE 5.8 mph - 0.00 in Thunderstorm Mostly Cloudy
10:02 PM 80.1 °F 84.2 °F 73.0 °F 79% 30.08 in 10.0 mi Variable 3.5 mph - N/A   Scattered Clouds
10:32 PM 79.0 °F - 73.9 °F 84% 30.09 in 10.0 mi SE 8.1 mph - N/A Thunderstorm Mostly Cloudy
10:53 PM 78.1 °F - 73.9 °F 87% 30.10 in 10.0 mi NE 3.5 mph - N/A Thunderstorm Scattered Clouds
11:09 PM 78.1 °F - 73.9 °F 87% 30.10 in 10.0 mi Calm Calm - N/A   Mostly Cloudy
11:36 PM 78.1 °F - 73.9 °F 87% 30.09 in 10.0 mi ESE 4.6 mph - N/A   Scattered Clouds
11:53 PM 78.1 °F - 73.9 °F 87% 30.09 in 10.0 mi Calm Calm - N/A   Clear